{"data":{"norad_id":62244,"intl_designator":"2024-232H","name":"QIANFAN-43","alt_names":[],"object_type":"PAYLOAD","status":"ACTIVE","operator":null,"country":"PRC","launch_date":"2024-12-05","launch_site_code":"TAISC","launch_vehicle":null,"mission":null,"orbit_class":"UNKNOWN","rcs_meters":null,"size_class":null,"mass_kg":null,"dimensions":null,"purposes":[],"wikipedia_slug":null,"has_3d_model":false,"image_url":null,"decayed_at":null,"tle_current":{"epoch":"2026-09-22T20:43:13.850400Z","epoch_age_seconds":105792,"freshness":"FRESH","line1":"1 62244U 24232H   26265.86335475  .00000096  00000+0  13040-3 0  9998","line2":"2 62244  89.0169  12.7635 0017431  96.9347 263.3788 13.51030248106226","mean_motion":13.51030248,"eccentricity":0.0017431,"inclination_deg":89.0169,"raan_deg":12.7635,"arg_perigee_deg":96.9347,"mean_anomaly_deg":263.3788,"bstar":0.0001304,"rev_number":10622,"period_min":106.58532643009,"perigee_km":1055.4902544818,"apogee_km":1081.4506173249,"semimajor_km":7446.6074359033,"source":"CELESTRAK","updated_at":"2026-09-23T09:00:21.308613Z"}}}